Time,TemperatureF,DewpointF,PressureIn,WindDirection,WindDirectionDegrees,WindSpeedMPH,WindSpeedGustMPH,Humidity,HourlyPrecipIn,Conditions,Clouds,dailyrainin,SoftwareType,DateUTC
2013-01-30 00:02:00,51.0,50.0,29.36,South,182,1.0,3.0,98,0.02,,,1.08,,2013-01-30 06:02:00,
2013-01-30 00:11:00,51.0,50.0,29.36,South,182,1.0,3.0,98,0.02,,,1.08,,2013-01-30 06:11:00,
2013-01-30 00:21:00,51.0,50.0,29.36,SW,229,2.0,5.0,98,0.03,,,1.10,,2013-01-30 06:21:00,
2013-01-30 00:32:00,51.0,50.0,29.34,ESE,105,0.0,5.0,98,0.04,,,1.12,,2013-01-30 06:32:00,
2013-01-30 00:42:00,51.0,50.0,29.34,ESE,105,0.0,5.0,98,0.04,,,1.12,,2013-01-30 06:42:00,
2013-01-30 00:52:00,51.0,50.0,29.34,ESE,105,0.0,5.0,98,0.04,,,1.12,,2013-01-30 06:52:00,
2013-01-30 01:02:00,50.0,49.0,29.33,South,181,0.0,0.0,98,0.05,,,1.12,,2013-01-30 07:02:00,
2013-01-30 01:11:00,50.0,49.0,29.33,South,181,0.0,0.0,98,0.05,,,1.12,,2013-01-30 07:11:00,
2013-01-30 01:21:00,49.0,48.0,29.36,South,181,0.0,0.0,97,0.03,,,1.12,,2013-01-30 07:21:00,
2013-01-30 01:32:00,49.0,48.0,29.39,South,181,0.0,1.0,98,0.02,,,1.13,,2013-01-30 07:32:00,
2013-01-30 01:41:00,49.0,48.0,29.39,South,181,0.0,1.0,98,0.02,,,1.13,,2013-01-30 07:41:00,
2013-01-30 01:52:00,49.0,48.0,29.35,South,181,0.0,0.0,98,0.06,,,1.18,,2013-01-30 07:52:00,
2013-01-30 02:01:00,47.0,46.0,29.39,NW,318,1.0,4.0,97,0.10,,,1.23,,2013-01-30 08:01:00,
2013-01-30 02:11:00,47.0,46.0,29.39,NW,318,1.0,4.0,97,0.10,,,1.23,,2013-01-30 08:11:00,
2013-01-30 02:21:00,46.0,45.0,29.37,NW,321,0.0,3.0,97,0.14,,,1.27,,2013-01-30 08:21:00,
2013-01-30 02:32:00,46.0,45.0,29.37,North,360,0.0,4.0,97,0.16,,,1.30,,2013-01-30 08:32:00,
2013-01-30 02:42:00,46.0,45.0,29.37,North,360,0.0,4.0,97,0.16,,,1.30,,2013-01-30 08:42:00,
2013-01-30 02:52:00,45.0,44.0,29.34,NW,313,0.0,2.0,97,0.14,,,1.32,,2013-01-30 08:52:00,
2013-01-30 03:01:00,44.0,43.0,29.33,WNW,286,0.0,3.0,97,0.09,,,1.32,,2013-01-30 09:01:00,
2013-01-30 03:11:00,44.0,43.0,29.33,WNW,286,0.0,3.0,97,0.09,,,1.32,,2013-01-30 09:11:00,
2013-01-30 03:21:00,44.0,43.0,29.36,NW,319,2.0,9.0,97,0.05,,,1.32,,2013-01-30 09:21:00,
2013-01-30 03:32:00,42.0,41.0,29.39,NNW,330,3.0,9.0,97,0.02,,,1.32,,2013-01-30 09:32:00,
2013-01-30 03:42:00,42.0,41.0,29.39,NNW,330,3.0,9.0,97,0.02,,,1.32,,2013-01-30 09:42:00,
2013-01-30 03:52:00,41.0,40.0,29.40,NNW,331,3.0,8.0,96,0.03,,,1.35,,2013-01-30 09:52:00,
2013-01-30 04:01:00,40.0,39.0,29.39,NNW,344,2.0,6.0,96,0.06,,,1.38,,2013-01-30 10:01:00,
2013-01-30 04:11:00,40.0,39.0,29.39,NNW,344,2.0,6.0,96,0.06,,,1.38,,2013-01-30 10:11:00,
2013-01-30 04:21:00,40.0,39.0,29.37,NNW,348,1.0,5.0,97,0.08,,,1.40,,2013-01-30 10:21:00,
2013-01-30 04:32:00,39.0,38.0,29.32,North,5,3.0,4.0,97,0.09,,,1.41,,2013-01-30 10:32:00,
2013-01-30 04:42:00,39.0,38.0,29.32,North,5,3.0,4.0,97,0.09,,,1.41,,2013-01-30 10:42:00,
2013-01-30 04:52:00,39.0,38.0,29.30,NNW,347,1.0,6.0,97,0.06,,,1.41,,2013-01-30 10:52:00,
2013-01-30 05:02:00,39.0,38.0,29.28,ENE,61,0.0,5.0,97,0.03,,,1.41,,2013-01-30 11:02:00,
2013-01-30 05:11:00,39.0,38.0,29.28,ENE,61,0.0,5.0,97,0.03,,,1.41,,2013-01-30 11:11:00,
2013-01-30 05:22:00,38.0,37.0,29.30,NNW,340,0.0,4.0,97,0.01,,,1.40,,2013-01-30 11:22:00,
2013-01-30 05:32:00,38.0,37.0,29.30,NNE,30,0.0,2.0,97,0.00,,,1.40,,2013-01-30 11:32:00,
2013-01-30 05:42:00,38.0,37.0,29.30,NNE,30,0.0,2.0,97,0.00,,,1.40,,2013-01-30 11:42:00,
2013-01-30 05:52:00,39.0,38.0,29.30,NNW,347,0.0,1.0,97,0.00,,,1.40,,2013-01-30 11:52:00,
2013-01-30 06:02:00,39.0,38.0,29.32,NNW,347,0.0,2.0,97,0.00,,,1.40,,2013-01-30 12:02:00,
2013-01-30 06:12:00,39.0,38.0,29.32,NNW,347,0.0,2.0,97,0.00,,,1.40,,2013-01-30 12:12:00,
2013-01-30 06:22:00,38.0,37.0,29.30,NNE,14,0.0,3.0,97,0.00,,,1.40,,2013-01-30 12:22:00,
2013-01-30 06:32:00,38.0,37.0,29.31,NNE,14,0.0,0.0,97,0.00,,,1.40,,2013-01-30 12:32:00,
2013-01-30 06:42:00,38.0,37.0,29.31,NNE,14,0.0,0.0,97,0.00,,,1.40,,2013-01-30 12:42:00,
2013-01-30 07:03:00,38.0,37.0,29.31,NNE,14,0.0,0.0,97,0.00,,,1.40,,2013-01-30 13:03:00,
2013-01-30 07:12:00,38.0,37.0,29.31,NNE,14,0.0,0.0,97,0.00,,,1.40,,2013-01-30 13:12:00,
2013-01-30 07:23:00,38.0,37.0,29.31,NNE,14,0.0,0.0,97,0.00,,,1.40,,2013-01-30 13:23:00,
2013-01-30 07:32:00,38.0,37.0,29.30,ESE,106,0.0,2.0,97,0.00,,,1.40,,2013-01-30 13:32:00,
2013-01-30 07:42:00,38.0,37.0,29.30,ESE,106,0.0,2.0,97,0.00,,,1.40,,2013-01-30 13:42:00,
2013-01-30 07:53:00,39.0,38.0,29.28,SE,134,0.0,2.0,97,0.00,,,1.40,,2013-01-30 13:53:00,
2013-01-30 08:02:00,39.0,38.0,29.28,SE,128,0.0,3.0,98,0.00,,,1.40,,2013-01-30 14:02:00,
2013-01-30 08:12:00,39.0,38.0,29.28,SE,128,0.0,3.0,98,0.00,,,1.40,,2013-01-30 14:12:00,
2013-01-30 08:22:00,39.0,38.0,29.27,SSE,159,0.0,3.0,98,0.00,,,1.40,,2013-01-30 14:22:00,
2013-01-30 08:33:00,40.0,39.0,29.26,East,95,1.0,4.0,98,0.00,,,1.40,,2013-01-30 14:33:00,
2013-01-30 08:42:00,40.0,39.0,29.26,East,95,1.0,4.0,98,0.00,,,1.40,,2013-01-30 14:42:00,
2013-01-30 08:53:00,40.0,39.0,29.26,ESE,107,2.0,7.0,98,0.01,,,1.41,,2013-01-30 14:53:00,
2013-01-30 09:03:00,40.0,39.0,29.25,ESE,122,1.0,5.0,98,0.01,,,1.41,,2013-01-30 15:03:00,
2013-01-30 09:12:00,40.0,39.0,29.25,ESE,122,1.0,5.0,98,0.01,,,1.41,,2013-01-30 15:12:00,
2013-01-30 09:23:00,41.0,40.0,29.23,SE,136,1.0,4.0,98,0.01,,,1.41,,2013-01-30 15:23:00,
2013-01-30 09:33:00,42.0,41.0,29.23,SE,145,0.0,5.0,98,0.01,,,1.41,,2013-01-30 15:33:00,
2013-01-30 09:43:00,42.0,41.0,29.23,SE,145,0.0,5.0,98,0.01,,,1.41,,2013-01-30 15:43:00,
2013-01-30 09:53:00,43.0,42.0,29.23,SSE,153,2.0,5.0,98,0.00,,,1.41,,2013-01-30 15:53:00,
2013-01-30 10:03:00,44.0,43.0,29.23,SW,234,2.0,10.0,98,0.00,,,1.41,,2013-01-30 16:03:00,
2013-01-30 10:12:00,44.0,43.0,29.23,SW,234,2.0,10.0,98,0.00,,,1.41,,2013-01-30 16:12:00,
2013-01-30 10:23:00,42.0,41.0,29.24,ESE,113,3.0,10.0,98,0.00,,,1.41,,2013-01-30 16:23:00,
2013-01-30 10:32:00,41.0,39.0,29.25,SW,224,4.0,13.0,94,0.00,,,1.41,,2013-01-30 16:32:00,
2013-01-30 10:42:00,41.0,39.0,29.25,SW,224,4.0,13.0,94,0.00,,,1.41,,2013-01-30 16:42:00,
2013-01-30 10:52:00,41.0,39.0,29.25,SW,224,4.0,13.0,94,0.00,,,1.41,,2013-01-30 16:52:00,
2013-01-30 11:02:00,40.0,38.0,29.24,West,281,3.0,7.0,92,0.00,,,1.41,,2013-01-30 17:02:00,
2013-01-30 11:12:00,40.0,38.0,29.24,West,281,3.0,7.0,92,0.00,,,1.41,,2013-01-30 17:12:00,
2013-01-30 11:23:00,40.0,37.0,29.26,East,100,4.0,11.0,90,0.00,,,1.41,,2013-01-30 17:23:00,
2013-01-30 11:33:00,39.0,36.0,29.25,NW,304,2.0,8.0,90,0.00,,,1.41,,2013-01-30 17:33:00,
2013-01-30 11:42:00,39.0,36.0,29.25,NW,304,2.0,8.0,90,0.00,,,1.41,,2013-01-30 17:42:00,
2013-01-30 11:53:00,39.0,36.0,29.26,SSW,208,4.0,8.0,90,0.00,,,1.41,,2013-01-30 17:53:00,
2013-01-30 12:02:00,39.0,36.0,29.26,SSW,208,4.0,8.0,90,0.00,,,1.41,,2013-01-30 18:02:00,
2013-01-30 12:12:00,39.0,36.0,29.26,SSW,208,4.0,8.0,90,0.00,,,1.41,,2013-01-30 18:12:00,
2013-01-30 12:22:00,38.0,35.0,29.26,NW,312,4.0,10.0,90,0.00,,,1.41,,2013-01-30 18:22:00,
2013-01-30 12:33:00,38.0,35.0,29.26,NW,312,4.0,10.0,90,0.00,,,1.41,,2013-01-30 18:33:00,
2013-01-30 12:43:00,38.0,35.0,29.26,NW,312,4.0,10.0,90,0.00,,,1.41,,2013-01-30 18:43:00,
2013-01-30 12:53:00,38.0,36.0,29.26,East,99,2.0,8.0,92,0.00,,,1.41,,2013-01-30 18:53:00,
2013-01-30 13:02:00,37.0,35.0,29.26,SW,221,3.0,9.0,91,0.00,,,1.41,,2013-01-30 19:02:00,
2013-01-30 13:12:00,37.0,35.0,29.26,SW,221,3.0,9.0,91,0.00,,,1.41,,2013-01-30 19:12:00,
2013-01-30 13:22:00,37.0,35.0,29.26,SW,221,3.0,9.0,91,0.00,,,1.41,,2013-01-30 19:22:00,
2013-01-30 13:32:00,38.0,36.0,29.25,West,277,5.0,12.0,91,0.00,,,1.41,,2013-01-30 19:32:00,
2013-01-30 13:43:00,38.0,36.0,29.25,West,277,5.0,12.0,91,0.00,,,1.41,,2013-01-30 19:43:00,
2013-01-30 13:52:00,37.0,34.0,29.26,WSW,249,4.0,14.0,90,0.00,,,1.41,,2013-01-30 19:52:00,
2013-01-30 14:03:00,36.0,33.0,29.28,NNW,343,6.0,15.0,89,0.00,,,1.41,,2013-01-30 20:03:00,
2013-01-30 14:12:00,36.0,33.0,29.28,NNW,343,6.0,15.0,89,0.00,,,1.41,,2013-01-30 20:12:00,
2013-01-30 14:22:00,36.0,33.0,29.28,NNW,343,6.0,15.0,89,0.00,,,1.41,,2013-01-30 20:22:00,
2013-01-30 14:33:00,34.0,31.0,29.29,WSW,254,6.0,12.0,90,0.00,,,1.37,,2013-01-30 20:33:00,
2013-01-30 14:42:00,34.0,31.0,29.29,WSW,254,6.0,12.0,90,0.00,,,1.37,,2013-01-30 20:42:00,
2013-01-30 14:52:00,33.0,30.0,29.30,WNW,302,5.0,16.0,90,0.00,,,1.37,,2013-01-30 20:52:00,
2013-01-30 15:03:00,32.0,30.0,29.31,NNW,333,5.0,13.0,91,0.00,,,1.37,,2013-01-30 21:03:00,
2013-01-30 15:12:00,32.0,30.0,29.31,NNW,333,5.0,13.0,91,0.00,,,1.37,,2013-01-30 21:12:00,
2013-01-30 15:23:00,32.0,30.0,29.34,NNW,339,5.0,16.0,92,0.00,,,1.37,,2013-01-30 21:23:00,
2013-01-30 15:32:00,31.0,29.0,29.35,NNW,343,4.0,14.0,93,0.00,,,1.37,,2013-01-30 21:32:00,
2013-01-30 15:42:00,31.0,29.0,29.35,NNW,343,4.0,14.0,93,0.00,,,1.37,,2013-01-30 21:42:00,
2013-01-30 15:52:00,31.0,29.0,29.35,NW,306,5.0,14.0,93,0.00,,,1.37,,2013-01-30 21:52:00,
2013-01-30 16:03:00,31.0,29.0,29.36,NE,45,4.0,14.0,93,0.00,,,1.37,,2013-01-30 22:03:00,
2013-01-30 16:12:00,31.0,29.0,29.36,NE,45,4.0,14.0,93,0.00,,,1.37,,2013-01-30 22:12:00,
2013-01-30 16:22:00,31.0,29.0,29.38,WNW,294,5.0,15.0,92,0.00,,,1.37,,2013-01-30 22:22:00,
2013-01-30 16:32:00,31.0,29.0,29.38,WNW,294,5.0,15.0,92,0.00,,,1.37,,2013-01-30 22:32:00,
2013-01-30 16:42:00,31.0,29.0,29.38,WNW,294,5.0,15.0,92,0.00,,,1.37,,2013-01-30 22:42:00,
2013-01-30 16:52:00,30.0,28.0,29.41,WNW,293,5.0,15.0,92,0.00,,,1.26,,2013-01-30 22:52:00,
2013-01-30 17:02:00,29.0,26.0,29.43,WNW,299,7.0,18.0,90,0.00,,,1.26,,2013-01-30 23:02:00,
2013-01-30 17:12:00,29.0,26.0,29.43,WNW,299,7.0,18.0,90,0.00,,,1.26,,2013-01-30 23:12:00,
2013-01-30 17:22:00,29.0,26.0,29.44,SW,217,7.0,17.0,90,0.00,,,1.26,,2013-01-30 23:22:00,
2013-01-30 17:32:00,28.0,25.0,29.45,NNW,330,8.0,20.0,90,0.00,,,1.03,,2013-01-30 23:32:00,
2013-01-30 17:42:00,28.0,25.0,29.45,NNW,330,8.0,20.0,90,0.00,,,1.03,,2013-01-30 23:42:00,
2013-01-30 17:52:00,27.0,24.0,29.47,West,281,7.0,19.0,90,0.00,,,1.03,,2013-01-30 23:52:00,
2013-01-30 18:02:00,27.0,24.0,29.47,West,281,7.0,19.0,90,0.00,,,1.03,,2013-01-31 00:02:00,
2013-01-30 18:11:00,27.0,24.0,29.47,West,281,7.0,19.0,90,0.00,,,1.03,,2013-01-31 00:11:00,
2013-01-30 18:22:00,27.0,24.0,29.49,North,360,6.0,15.0,90,0.00,,,1.03,,2013-01-31 00:22:00,
2013-01-30 18:32:00,26.0,23.0,29.51,NW,319,8.0,18.0,89,0.00,,,0.85,,2013-01-31 00:32:00,
2013-01-30 18:42:00,26.0,23.0,29.51,NW,319,8.0,18.0,89,0.00,,,0.85,,2013-01-31 00:42:00,
2013-01-30 18:52:00,26.0,23.0,29.52,North,360,6.0,15.0,89,0.00,,,0.85,,2013-01-31 00:52:00,
2013-01-30 19:02:00,26.0,22.0,29.53,NW,317,7.0,19.0,86,0.00,,,0.85,,2013-01-31 01:02:00,
2013-01-30 19:12:00,26.0,22.0,29.53,NW,317,7.0,19.0,86,0.00,,,0.85,,2013-01-31 01:12:00,
2013-01-30 19:21:00,26.0,22.0,29.54,SW,236,6.0,18.0,86,0.00,,,0.85,,2013-01-31 01:21:00,
2013-01-30 19:32:00,26.0,23.0,29.55,North,5,6.0,15.0,87,0.00,,,0.69,,2013-01-31 01:32:00,
2013-01-30 19:42:00,26.0,23.0,29.55,North,5,6.0,15.0,87,0.00,,,0.69,,2013-01-31 01:42:00,
2013-01-30 19:52:00,25.0,21.0,29.56,WNW,294,6.0,13.0,86,0.00,,,0.69,,2013-01-31 01:52:00,
2013-01-30 20:01:00,25.0,21.0,29.57,NNW,340,6.0,17.0,85,0.00,,,0.69,,2013-01-31 02:01:00,
2013-01-30 20:12:00,25.0,21.0,29.57,NNW,340,6.0,17.0,85,0.00,,,0.69,,2013-01-31 02:12:00,
2013-01-30 20:21:00,25.0,21.0,29.57,NNW,340,6.0,17.0,85,0.00,,,0.69,,2013-01-31 02:21:00,
2013-01-30 20:32:00,24.0,20.0,29.59,WSW,238,4.0,15.0,86,0.00,,,0.59,,2013-01-31 02:32:00,
2013-01-30 20:42:00,24.0,20.0,29.59,WSW,238,4.0,15.0,86,0.00,,,0.59,,2013-01-31 02:42:00,
2013-01-30 20:52:00,24.0,20.0,29.59,WSW,238,4.0,15.0,86,0.00,,,0.59,,2013-01-31 02:52:00,
2013-01-30 21:03:00,23.0,19.0,29.62,NNW,336,6.0,17.0,85,0.00,,,0.59,,2013-01-31 03:03:00,
2013-01-30 21:11:00,23.0,19.0,29.62,NNW,336,6.0,17.0,85,0.00,,,0.59,,2013-01-31 03:11:00,
2013-01-30 21:21:00,22.0,18.0,29.63,NW,317,4.0,16.0,85,0.00,,,0.59,,2013-01-31 03:21:00,
2013-01-30 21:32:00,21.0,17.0,29.64,SW,221,4.0,15.0,85,0.00,,,0.50,,2013-01-31 03:32:00,
2013-01-30 21:41:00,21.0,17.0,29.64,SW,221,4.0,15.0,85,0.00,,,0.50,,2013-01-31 03:41:00,
2013-01-30 21:51:00,21.0,17.0,29.65,NW,317,6.0,17.0,84,0.00,,,0.50,,2013-01-31 03:51:00,
2013-01-30 22:02:00,21.0,16.0,29.66,NNE,20,8.0,15.0,82,0.00,,,0.50,,2013-01-31 04:02:00,
2013-01-30 22:11:00,21.0,16.0,29.66,NNE,20,8.0,15.0,82,0.00,,,0.50,,2013-01-31 04:11:00,
2013-01-30 22:22:00,21.0,17.0,29.66,WNW,291,6.0,14.0,84,0.00,,,0.50,,2013-01-31 04:22:00,
2013-01-30 22:31:00,21.0,17.0,29.67,SW,234,6.0,22.0,83,0.00,,,0.44,,2013-01-31 04:31:00,
2013-01-30 22:41:00,21.0,17.0,29.67,SW,234,6.0,22.0,83,0.00,,,0.44,,2013-01-31 04:41:00,
2013-01-30 22:51:00,21.0,17.0,29.67,NW,315,4.0,16.0,83,0.00,,,0.44,,2013-01-31 04:51:00,
2013-01-30 23:03:00,21.0,17.0,29.68,South,188,4.0,14.0,83,0.00,,,0.44,,2013-01-31 05:03:00,
2013-01-30 23:11:00,21.0,17.0,29.68,South,188,4.0,14.0,83,0.00,,,0.44,,2013-01-31 05:11:00,
2013-01-30 23:22:00,21.0,16.0,29.69,NNW,328,6.0,15.0,82,0.00,,,0.44,,2013-01-31 05:22:00,
2013-01-30 23:32:00,21.0,16.0,29.69,NNW,328,6.0,15.0,82,0.00,,,0.44,,2013-01-31 05:32:00,
2013-01-30 23:42:00,20.0,15.0,29.70,NW,320,5.0,13.0,82,0.00,,,0.35,,2013-01-31 05:42:00,
2013-01-30 23:52:00,20.0,15.0,29.70,NW,320,5.0,13.0,82,0.00,,,0.35,,2013-01-31 05:52:00,